Вернуться в каталог

SYRACUSE 4A

АктивенВоенныеGEO
NORAD 49333·PAYLOAD·🇫🇷 France

Запущен Oct 24, 2021 с Guiana Space Centre

Loading…

TLE

СвежийSource: Space-Track

Эпоха: Sep 14, 2026, 14:01 UTC

1 49333U 21095B   26257.58411439  .00000127  00000-0  00000-0 0  9996
2 49333   0.0191 202.9431 0001444 326.5748  79.8365  1.00270884 18843

Отслеживайте SYRACUSE 4A в реальном времени с AllMySat

Download on the App Store